Retour au catalogue

CHINASAT 10

ActifCommunicationsGEO
NORAD 37677·PAYLOAD·🇨🇳 China

Lancé Jun 20, 2011 depuis Xichang Satellite Launch Center

Loading…

TLE

FraisSource: Space-Track

Époque: Sep 14, 2026, 14:12 UTC

1 37677U 11026A   26257.59208775 -.00000195  00000-0  00000-0 0  9991
2 37677   1.2721  83.0128 0002582  65.8857 143.2624  1.00272126 55893

Suivez CHINASAT 10 en temps réel avec AllMySat

Download on the App Store